Location: Waco, TX
(31.5480°N, 97.1670°W)
Time: 08:40:07
(UTC-05:00)

ISS - Pass Details

Date: 19 June 2018
Orbit: 402 x 406 km, 51.6° (Epoch: 18 June)

Event Time Altitude Azimuth Distance (km) Brightness Sun altitude
Rises 18:41:42 0° 300° (WNW) 2,317 1.4 21.9°
Reaches altitude 10° 18:44:03 10° 285° (WNW) 1,454 1.3 21.4°
Maximum altitude 18:46:39 22° 232° (SW) 928 -1.3 20.8°
Drops below altitude 10° 18:49:15 10° 178° (S) 1,445 -1.1 20.3°
Sets 18:51:36 0° 163° (SSE) 2,299 -0.3 19.8°
